Location: *
(24.1434°N, 56.8729°E)
Time: 22:07:37
(UTC+00:00)

Cosmos 1626 - Pass Details

Date: 09 April 2020
Orbit: 493 x 494 km, 82.5° (Epoch: 24 May)

Event Time Altitude Azimuth Distance (km) Brightness Sun altitude
Rises 14:56:23 0° 347° (NNW) 2,572 6.1 -6.3°
Reaches altitude 10° 14:58:32 10° 342° (NNW) 1,688 5.2 -6.8°
Maximum altitude 15:02:06 50° 267° (W) 635 3.2 -7.6°
Drops below altitude 10° 15:05:41 10° 191° (S) 1,681 4.8 -8.4°
Sets 15:07:49 0° 186° (S) 2,560 5.7 -8.9°
